Retour au catalogue

CONTECSAT-1

ActifScienceSSO
NORAD 59117·PAYLOAD·🇰🇷 South Korea

Lancé Mar 4, 2024 depuis Vandenberg Space Force Base

Loading…

Prochains Passages (prochaines 24 heures)

TLE

FraisSource: Space-Track

Époque: Sep 14, 2026, 14:24 UTC

1 59117U 24043V   26257.60062383  .00003061  00000-0  88426-4 0  9998
2 59117  97.5777  41.2737 0004333 266.7549  93.3199 15.36473749140988

Suivez CONTECSAT-1 en temps réel avec AllMySat

Download on the App Store